OSLO / FORNEBU current weather conditions

sailwx.info

Wind from 270 at 31 knots

Air temperature 6.0° C
Visibility: greater than 5.4 NM
Dewpoint 2.0° C

Last reported at 2015-Mar-28 23:20 UTC.
Time now 2015-Mar-29 01:12 UTC

Location: N 59°54' E 010°38'.
View on Google Maps.

See reports from other nearby stations

  
Tides and Currents Weather Stations Pressure Air Temp Water Temp Dewpoint Dewpoint Depression Visibility Wind Speed Wind Dir Waves Ship Positions
date/time (UTC)wind fromknots sea level pressurealtimeterstation pressurevisibilityair tempwater tempwave heightnotes
2015-Mar-29 00:20 260 30 5.4 6.0
2015-Mar-28 23:50 270 30 5.4 6.0
2015-Mar-28 23:20 270 31 5.4 6.0
2015-Mar-28 22:50 270 30 5.4 6.0 Light rain showers.
2015-Mar-28 22:20 280 30 5.4 6.0
2015-Mar-28 21:50 270 29 5.4 6.0 Light rain.
2015-Mar-28 21:20 250 24 5.4 7.0 Light rain.
2015-Mar-28 20:50 250 25 4.9 6.0 Light rain.
2015-Mar-28 20:20 190 27 1.1 8.0 Light rain. Mist.
2015-Mar-28 19:50 170 41 1.9 7.0 Light rain. Mist.
2015-Mar-28 19:20 160 48 2.4 7.0 Light rain. Mist.
2015-Mar-28 18:50 150 52 5.4 7.0 Light rain.
2015-Mar-28 18:20 150 57 2.7 7.0 Light rain.
2015-Mar-28 17:50 150 59 2.5 6.0 Light rain. Mist.
2015-Mar-28 17:20 150 59 gusting 71 2.0 6.0 Light rain. Mist.
2015-Mar-28 16:50 150 55 gusting 66 2.7 6.0 Light rain.
2015-Mar-28 16:20 150 59 gusting 71 2.6 6.0 Light rain. Mist.
2015-Mar-28 15:50 150 62 2.5 5.0 Light rain. Mist.
2015-Mar-28 15:20 150 62 gusting 72 2.2 6.0 Light rain. Mist.
2015-Mar-28 14:50 150 60 2.5 6.0 Light rain. Mist.
2015-Mar-28 14:20 150 56 3.8 6.0 Light rain.
2015-Mar-28 13:50 160 55 2.7 5.0 Light rain showers.
2015-Mar-28 13:20 140 55 2.2 6.0 Light rain showers. Mist.
2015-Mar-28 12:50 150 51 5.4 5.0 Light rain.
2015-Mar-28 12:20 170 54 3.8 6.0 Light rain.
2015-Mar-28 11:50 160 49 5.4 7.0
2015-Mar-28 11:20 160 44 5.4 8.0
2015-Mar-28 10:50 160 43 5.4 7.0
2015-Mar-28 10:20 170 38 5.4 7.0
2015-Mar-28 09:50 160 42 5.4 7.0
2015-Mar-28 09:20 160 39 5.4 7.0
2015-Mar-28 08:50 160 36 5.4 8.0
2015-Mar-28 08:20 170 38 5.4 7.0
2015-Mar-28 07:50 170 34 5.4 7.0
2015-Mar-28 07:20 180 27 5.4 7.0 Light rain showers.
2015-Mar-28 06:50 180 26 5.4 7.0
2015-Mar-28 06:20 190 23 5.4 7.0
2015-Mar-28 05:50 200 24 5.4 6.0
2015-Mar-28 05:20 200 18 3.8 6.0 Light rain showers.
2015-Mar-28 04:50 200 20 5.4 6.0
2015-Mar-28 04:20 200 23 5.4 6.0
2015-Mar-28 03:50 210 20 5.4 6.0
2015-Mar-28 03:20 210 20 5.4 6.0
2015-Mar-28 02:50 220 20 5.4 6.0
2015-Mar-28 02:20 220 17 5.4 6.0
2015-Mar-28 01:50 220 23 5.4 7.0
2015-Mar-28 01:20 220 23 5.4 6.0
2015-Mar-28 00:50 220 24 5.4 7.0
2015-Mar-28 00:20 220 23 5.4 7.0
2015-Mar-27 23:50 220 20 5.4 6.0
2015-Mar-27 23:20 230 17 5.4 6.0
2015-Mar-27 22:50 240 25 5.4 6.0
2015-Mar-27 22:20 230 24 5.4 6.0
2015-Mar-27 21:50 220 25 5.4 6.0
2015-Mar-27 21:20 220 27 4.3 5.0 Rain showers.
2015-Mar-27 20:50 210 27 5.4 6.0
2015-Mar-27 20:20 210 31 5.4 7.0 Light rain showers.
2015-Mar-27 19:50 210 26 5.4 6.0 Light rain showers.
2015-Mar-27 19:20 220 24 5.4 6.0 Light drizzle.
2015-Mar-27 18:50 210 25 5.4 6.0
2015-Mar-27 18:20 210 25 5.4 6.0
2015-Mar-27 17:50 210 22 5.4 6.0
2015-Mar-27 17:20 210 20 5.4 7.0
2015-Mar-27 16:50 220 18 5.4 7.0
2015-Mar-27 16:20 220 17 5.4 7.0
2015-Mar-27 15:50 230 16 5.4 7.0
2015-Mar-27 15:20 240 16 5.4 7.0
2015-Mar-27 14:50 240 14 5.4 6.0
2015-Mar-27 14:20 240 12 5.4 7.0
2015-Mar-27 13:50 250 10 5.4 7.0
2015-Mar-27 13:20 270 10 5.4 7.0
2015-Mar-27 12:50 280 11 5.4 7.0
2015-Mar-27 12:20 290 12 5.4 6.0
2015-Mar-27 11:50 300 11 5.4 7.0
2015-Mar-27 11:20 310 10 5.4 6.0 Light rain.
2015-Mar-27 10:50 210 13 5.4 5.0 Light rain.
2015-Mar-27 10:20 220 16 5.4 5.0 Light rain.
2015-Mar-27 09:50 220 25 3.2 5.0 Light rain showers.
2015-Mar-27 09:20 210 16 5.4 7.0
2015-Mar-27 08:50 210 19 5.4 6.0
2015-Mar-27 08:20 210 22 5.4 6.0
2015-Mar-27 07:50 210 19 5.4 6.0
2015-Mar-27 07:20 200 13 5.4 6.0 Light rain showers.
2015-Mar-27 06:50 230 11 5.4 4.0 Light rain.
2015-Mar-27 06:20 250 20 5.4 5.0 Light rain.
2015-Mar-27 05:50 210 14 5.4 6.0
2015-Mar-27 05:20 220 12 5.4 6.0
2015-Mar-27 04:50 210 10 5.4 5.0
2015-Mar-27 04:20 210 10 5.4 5.0
2015-Mar-27 03:50 210 17 5.4 5.0
2015-Mar-27 03:20 220 15 5.4 5.0
2015-Mar-27 02:50 220 12 5.4 5.0
2015-Mar-27 02:20 210 15 5.4 5.0
2015-Mar-27 01:50 190 13 5.4 5.0
2015-Mar-27 01:20 190 16 5.4 5.0